{"data":{"norad_id":57336,"intl_designator":"2023-099J","name":"STARLINK-6320","alt_names":[],"object_type":"PAYLOAD","status":"ACTIVE","operator":null,"country":"US","launch_date":"2023-07-16","launch_site_code":"AFETR","launch_vehicle":null,"mission":null,"orbit_class":"UNKNOWN","rcs_meters":null,"size_class":null,"mass_kg":null,"dimensions":null,"purposes":["comms"],"wikipedia_slug":null,"has_3d_model":false,"image_url":null,"decayed_at":null,"tle_current":{"epoch":"2026-05-25T03:00:54.228096Z","epoch_age_seconds":71120,"freshness":"FRESH","line1":"1 57336U 23099J   26145.12562764 -.00000101  00000+0  58349-5 0  9994","line2":"2 57336  43.0006 177.5345 0001096 276.0576  84.0151 15.27574288157809","mean_motion":15.27574288,"eccentricity":0.0001096,"inclination_deg":43.0006,"raan_deg":177.5345,"arg_perigee_deg":276.0576,"mean_anomaly_deg":84.0151,"bstar":5.8349e-6,"rev_number":15780,"period_min":94.267101201693,"perigee_km":482.31421200512,"apogee_km":483.81818774654,"semimajor_km":6861.2031998758,"source":"CELESTRAK","updated_at":"2026-05-25T13:38:18.286943Z"}}}